When you browse on this site, cookies collect data to enhance your experience and personalize the content and advertising you see.
Visit our Privacy Policy to learn more. By continuing to use the site, you agree to this use of cookies and data.
  • In Österreich
  • Länderverzeichnis
  • Für 7 Tage
  • Wassertemperatur
  • Wetterkarte
  • News
  • Widgets
  • user-avatar
    Anmelden

    Stündliche Wetter Bad Vöslau

    Heute, 19 November, Dienstag

    Zeit Temperatur Niederschläge Wind Luftdruck Luftfeuchtigkeit
    00:00 +7°C° 0 mm 2 m/S 733 mmHg 78%
    01:00 +7°C° 0 mm 3 m/S 733 mmHg 78%
    02:00 +7°C° 0 mm 3 m/S 733 mmHg 79%
    03:00 +7°C° 0 mm 3 m/S 733 mmHg 81%
    04:00 +7°C° 0 mm 2 m/S 733 mmHg 83%
    05:00 +7°C° 0 mm 3 m/S 733 mmHg 83%
    06:00 +7°C° 0 mm 3 m/S 733 mmHg 82%
    07:00 +7°C° 0 mm 3 m/S 734 mmHg 82%
    08:00 +8°C° 0 mm 3 m/S 734 mmHg 78%
    09:00 +9°C° 0 mm 3 m/S 734 mmHg 75%
    10:00 +10°C° 0 mm 4 m/S 734 mmHg 71%
    11:00 +10°C° 0 mm 4 m/S 733 mmHg 70%
    12:00 +11°C° 0 mm 4 m/S 733 mmHg 68%
    13:00 +11°C° 0 mm 4 m/S 733 mmHg 67%
    14:00 +11°C° 0 mm 4 m/S 733 mmHg 71%
    15:00 +10°C° 0 mm 4 m/S 732 mmHg 75%
    16:00 +8°C° 0 mm 4 m/S 732 mmHg 79%
    17:00 +8°C° 0 mm 4 m/S 733 mmHg 80%
    18:00 +8°C° 0 mm 4 m/S 733 mmHg 81%
    19:00 +8°C° 0 mm 3 m/S 733 mmHg 83%
    20:00 +8°C° 0 mm 3 m/S 733 mmHg 83%
    21:00 +8°C° 0 mm 3 m/S 733 mmHg 84%
    22:00 +8°C° 0 mm 2 m/S 733 mmHg 84%
    23:00 +8°C° 0 mm 2 m/S 733 mmHg 85%

    Morgen, 20 November, Mittwoch

    Zeit Temperatur Niederschläge Wind Luftdruck Luftfeuchtigkeit
    00:00 +7°C° 0 mm 2 m/S 733 mmHg 87%
    01:00 +8°C° 0 mm 1 m/S 733 mmHg 88%
    02:00 +7°C° 0 mm 1 m/S 733 mmHg 89%
    03:00 +7°C° 0 mm 1 m/S 732 mmHg 90%
    04:00 +6°C° 0 mm 0 m/S 732 mmHg 91%
    05:00 +6°C° 0 mm 0 m/S 732 mmHg 92%
    06:00 +5°C° 0 mm 0 m/S 732 mmHg 92%
    07:00 +5°C° 0 mm 0 m/S 732 mmHg 93%
    08:00 +6°C° 0 mm 0 m/S 732 mmHg 90%
    09:00 +7°C° 0 mm 0 m/S 732 mmHg 88%
    10:00 +8°C° 0 mm 0 m/S 732 mmHg 86%
    11:00 +9°C° 0.1 mm 1 m/S 731 mmHg 87%
    12:00 +9°C° 0.1 mm 1 m/S 731 mmHg 88%
    13:00 +9°C° 0.1 mm 1 m/S 730 mmHg 89%
    14:00 +9°C° 0.4 mm 1 m/S 730 mmHg 91%
    15:00 +9°C° 0.4 mm 1 m/S 730 mmHg 93%
    16:00 +9°C° 0.4 mm 1 m/S 730 mmHg 95%
    17:00 +9°C° 0.5 mm 1 m/S 730 mmHg 95%
    18:00 +9°C° 0.5 mm 1 m/S 730 mmHg 95%
    19:00 +9°C° 0.5 mm 1 m/S 730 mmHg 95%
    20:00 +9°C° 0.5 mm 1 m/S 729 mmHg 95%
    21:00 +9°C° 0.5 mm 1 m/S 729 mmHg 95%
    22:00 +9°C° 0.5 mm 1 m/S 729 mmHg 95%
    23:00 +9°C° 0.2 mm 1 m/S 729 mmHg 95%

    übermorgen, 21 November, Donnerstag

    Zeit Temperatur Niederschläge Wind Luftdruck Luftfeuchtigkeit
    00:00 +8°C° 0.2 mm 0 m/S 729 mmHg 95%
    01:00 +8°C° 0.2 mm 0 m/S 729 mmHg 96%
    02:00 +8°C° 0 mm 0 m/S 729 mmHg 96%
    03:00 +8°C° 0 mm 0 m/S 729 mmHg 96%
    04:00 +8°C° 0 mm 0 m/S 728 mmHg 96%
    05:00 +8°C° 0 mm 0 m/S 728 mmHg 96%
    06:00 +8°C° 0 mm 1 m/S 729 mmHg 97%
    07:00 +8°C° 0 mm 1 m/S 729 mmHg 97%
    08:00 +9°C° 0 mm 1 m/S 729 mmHg 94%
    09:00 +10°C° 0 mm 1 m/S 729 mmHg 90%
    10:00 +9°C° 0 mm 2 m/S 729 mmHg 87%
    11:00 +10°C° 0 mm 2 m/S 729 mmHg 84%
    12:00 +10°C° 0 mm 2 m/S 729 mmHg 81%
    13:00 +11°C° 0 mm 3 m/S 728 mmHg 79%
    14:00 +10°C° 0 mm 3 m/S 728 mmHg 82%
    15:00 +10°C° 0 mm 3 m/S 728 mmHg 86%
    16:00 +9°C° 0 mm 3 m/S 728 mmHg 89%
    17:00 +9°C° 0 mm 2 m/S 728 mmHg 90%
    18:00 +8°C° 0 mm 2 m/S 729 mmHg 91%
    19:00 +8°C° 0 mm 2 m/S 729 mmHg 92%
    20:00 +8°C° 0 mm 2 m/S 729 mmHg 92%
    21:00 +7°C° 0 mm 2 m/S 729 mmHg 92%
    22:00 +7°C° 0 mm 2 m/S 729 mmHg 92%
    23:00 +7°C° 0 mm 2 m/S 729 mmHg 92%

    22 November, Freitag

    Zeit Temperatur Niederschläge Wind Luftdruck Luftfeuchtigkeit
    00:00 +7°C° 0 mm 2 m/S 729 mmHg 92%
    01:00 +7°C° 0 mm 2 m/S 729 mmHg 91%
    02:00 +6°C° 0 mm 2 m/S 729 mmHg 91%
    03:00 +6°C° 0 mm 2 m/S 729 mmHg 91%
    04:00 +7°C° 0 mm 1 m/S 729 mmHg 91%
    05:00 +7°C° 0 mm 1 m/S 729 mmHg 91%
    06:00 +6°C° 0 mm 1 m/S 730 mmHg 91%
    07:00 +6°C° 0 mm 1 m/S 730 mmHg 91%
    08:00 +7°C° 0 mm 1 m/S 730 mmHg 87%
    09:00 +7°C° 0 mm 2 m/S 730 mmHg 83%
    10:00 +9°C° 0 mm 2 m/S 730 mmHg 79%
    11:00 +9°C° 0 mm 2 m/S 730 mmHg 76%
    12:00 +10°C° 0 mm 3 m/S 730 mmHg 73%
    13:00 +11°C° 0 mm 3 m/S 730 mmHg 69%
    14:00 +10°C° 0 mm 4 m/S 729 mmHg 74%
    15:00 +10°C° 0 mm 4 m/S 729 mmHg 79%
    16:00 +8°C° 0 mm 4 m/S 729 mmHg 84%
    17:00 +7°C° 0 mm 4 m/S 729 mmHg 85%
    18:00 +7°C° 0 mm 4 m/S 729 mmHg 87%
    19:00 +7°C° 0 mm 4 m/S 729 mmHg 89%
    20:00 +7°C° 0 mm 4 m/S 729 mmHg 89%
    21:00 +7°C° 0 mm 5 m/S 729 mmHg 88%
    22:00 +7°C° 0 mm 5 m/S 729 mmHg 88%
    23:00 +7°C° 0 mm 5 m/S 728 mmHg 88%

    23 November, Samstag

    Zeit Temperatur Niederschläge Wind Luftdruck Luftfeuchtigkeit
    00:00 +7°C° 0 mm 5 m/S 728 mmHg 88%
    01:00 +7°C° 0 mm 5 m/S 728 mmHg 88%
    02:00 +6°C° 0 mm 5 m/S 728 mmHg 88%
    03:00 +5°C° 0 mm 6 m/S 728 mmHg 88%
    04:00 +5°C° 0 mm 6 m/S 727 mmHg 87%
    05:00 +6°C° 0 mm 5 m/S 727 mmHg 88%
    06:00 +6°C° 0 mm 5 m/S 727 mmHg 88%
    07:00 +6°C° 0 mm 5 m/S 727 mmHg 88%
    08:00 +7°C° 0 mm 6 m/S 727 mmHg 84%
    09:00 +7°C° 0 mm 6 m/S 727 mmHg 81%
    10:00 +8°C° 0 mm 6 m/S 727 mmHg 78%
    11:00 +9°C° 0 mm 6 m/S 727 mmHg 75%
    12:00 +10°C° 0 mm 7 m/S 727 mmHg 71%
    13:00 +11°C° 0 mm 7 m/S 726 mmHg 68%
    14:00 +10°C° 0 mm 7 m/S 726 mmHg 70%
    15:00 +10°C° 0 mm 7 m/S 726 mmHg 73%
    16:00 +9°C° 0 mm 7 m/S 726 mmHg 76%
    17:00 +9°C° 0 mm 6 m/S 726 mmHg 78%
    18:00 +8°C° 0 mm 6 m/S 726 mmHg 80%
    19:00 +8°C° 0 mm 6 m/S 726 mmHg 82%
    20:00 +8°C° 0 mm 5 m/S 726 mmHg 83%
    21:00 +8°C° 0 mm 5 m/S 727 mmHg 84%
    22:00 +7°C° 0 mm 5 m/S 727 mmHg 85%
    23:00 +7°C° 0 mm 4 m/S 727 mmHg 85%

    24 November, Sonntag

    Zeit Temperatur Niederschläge Wind Luftdruck Luftfeuchtigkeit
    00:00 +7°C° 0 mm 4 m/S 727 mmHg 86%
    01:00 +7°C° 0 mm 4 m/S 727 mmHg 87%
    02:00 +7°C° 0 mm 3 m/S 727 mmHg 88%
    03:00 +7°C° 0 mm 3 m/S 728 mmHg 88%
    04:00 +7°C° 0 mm 2 m/S 728 mmHg 89%
    05:00 +6°C° 0 mm 2 m/S 728 mmHg 90%
    06:00 +6°C° 0 mm 2 m/S 729 mmHg 91%
    07:00 +7°C° 0 mm 1 m/S 729 mmHg 92%
    08:00 +8°C° 0 mm 1 m/S 730 mmHg 88%
    09:00 +9°C° 0 mm 1 m/S 730 mmHg 84%
    10:00 +10°C° 0 mm 1 m/S 731 mmHg 80%
    11:00 +10°C° 0 mm 1 m/S 731 mmHg 78%
    12:00 +11°C° 0 mm 1 m/S 730 mmHg 76%
    13:00 +12°C° 0 mm 1 m/S 730 mmHg 75%
    14:00 +11°C° 0 mm 1 m/S 731 mmHg 79%
    15:00 +10°C° 0 mm 1 m/S 731 mmHg 83%
    16:00 +9°C° 0 mm 1 m/S 731 mmHg 87%
    17:00 +9°C° 0 mm 1 m/S 731 mmHg 87%
    18:00 +9°C° 0 mm 1 m/S 731 mmHg 88%
    19:00 +8°C° 0 mm 0 m/S 732 mmHg 89%
    20:00 +7°C° 0 mm 0 m/S 732 mmHg 89%
    21:00 +7°C° 0 mm 0 m/S 732 mmHg 89%
    22:00 +7°C° 0 mm 0 m/S 732 mmHg 89%
    23:00 +7°C° 0 mm 0 m/S 732 mmHg 89%
    Mehr zeigen